Big Delta, AK

7:49 AM AKDT on October 17, 2017 (GMT -0800)
Allen Army Air Field

Weather History for PABI - March, 2013

Change the Weather History Date:

Thursday, March 7, 2013

  Actual Average Record
Temperature  
Mean Temperature 23 °F -  
Max Temperature 43 °F 18 °F 43 °F (2013)
Min Temperature 5 °F 0 °F -32 °F (2017)
Degree Days  
Heating Degree Days 42    
Moisture  
Dew Point 9 °F    
Average Humidity 53    
Maximum Humidity 77    
Minimum Humidity 28    
Precipitation  
Precipitation 0.00 in - - ()
Sea Level Pressure  
Sea Level Pressure 29.68 in    
Wind  
Wind Speed 16 mph (ESE)    
Max Wind Speed 32 mph    
Max Gust Speed 54 mph    
Visibility 10 miles    
Events      
Averages and records for this station are not official NWS values.
T = Trace of Precipitation, MM = Missing Value Source: NWS Daily Summary

Daily Weather History Graph

Daily Weather History Graph

Search for Another Location

Airport or City:

Trip Planner

Search our weather history database for the weather conditions in past years. The results will help you decide how hot, cold, wet, or windy it might be!

Date:

Astronomy

Mar. 07, 2013 Rise Set
Actual Time 7:27 AM AKST 6:21 PM AKST
Civil Twilight 6:40 AM AKST 7:08 PM AKST
Nautical Twilight 5:45 AM AKST 8:04 PM AKST
Astronomical Twilight 4:47 AM AKST 9:02 PM AKST
Moon 5:52 AM AKST (3/7) 1:06 PM AKST (3/7)
Length of Visible Light 12h 28m
Length of Day
10h 53m
Waning Crescent, 19% of the Moon is Illuminated
Mar 7
Waning Crescent
Mar 11
New
Mar 19
First Quarter
Mar 27
Full
Apr 2
Last Quarter

Hourly Weather History & Observations

Time (AKST) Temp. Windchill Dew Point Humidity Pressure Visibility Wind Dir Wind Speed Gust Speed Precip Events Conditions
12:53 AM 10.9 °F -0.8 °F 3.0 °F 70% 29.92 in 10.0 mi ESE 8.1 mph - N/A   Clear
1:53 AM 9.0 °F -0.9 °F 3.0 °F 77% 29.91 in 10.0 mi East 5.8 mph - N/A   Clear
2:53 AM 9.0 °F - 3.0 °F 77% 29.90 in 10.0 mi Calm Calm - N/A   Clear
3:53 AM 12.0 °F -2.0 °F 3.0 °F 67% 29.87 in 10.0 mi ESE 11.5 mph - N/A   Clear
4:53 AM 17.1 °F 0.6 °F 6.1 °F 62% 29.82 in 10.0 mi ESE 19.6 mph - N/A   Clear
5:53 AM 16.0 °F 0.1 °F 6.1 °F 65% 29.80 in 10.0 mi East 17.3 mph - N/A   Clear
6:53 AM 18.0 °F 2.2 °F 7.0 °F 62% 29.78 in 10.0 mi ESE 18.4 mph - N/A   Partly Cloudy
7:53 AM 18.0 °F -0.2 °F 7.0 °F 62% 29.75 in 10.0 mi ESE 25.3 mph 31.1 mph N/A   Overcast
8:53 AM 19.0 °F 1.3 °F 7.0 °F 59% 29.74 in 10.0 mi ESE 25.3 mph 32.2 mph N/A   Overcast
9:53 AM 21.0 °F 5.4 °F 8.1 °F 57% 29.73 in 10.0 mi ESE 20.7 mph 32.2 mph N/A   Overcast
10:53 AM 23.0 °F 6.9 °F 9.0 °F 55% 29.70 in 10.0 mi ESE 24.2 mph 31.1 mph N/A   Overcast
11:53 AM 24.1 °F 8.7 °F 9.0 °F 53% 29.68 in 10.0 mi ESE 23.0 mph 32.2 mph N/A   Overcast
12:53 PM 25.0 °F 7.6 °F 10.0 °F 53% 29.67 in 10.0 mi ESE 32.2 mph 39.1 mph N/A   Overcast
1:53 PM 26.1 °F 11.0 °F 10.9 °F 53% 29.64 in 10.0 mi East 24.2 mph - N/A   Overcast
2:53 PM 27.0 °F 13.5 °F 10.9 °F 51% 29.61 in 10.0 mi ESE 19.6 mph 32.2 mph N/A   Overcast
3:53 PM 28.9 °F 15.8 °F 12.0 °F 49% 29.57 in 10.0 mi East 20.7 mph 31.1 mph N/A   Overcast
4:53 PM 28.0 °F 15.3 °F 12.0 °F 51% 29.55 in 10.0 mi ESE 18.4 mph 31.1 mph N/A   Overcast
5:53 PM 28.0 °F 13.3 °F 12.0 °F 51% 29.56 in 10.0 mi East 25.3 mph 34.5 mph N/A   Overcast
6:53 PM 28.9 °F 15.8 °F 10.9 °F 47% 29.56 in 10.0 mi SE 20.7 mph 28.8 mph N/A   Overcast
7:53 PM 28.9 °F 15.1 °F 12.0 °F 49% 29.54 in 10.0 mi East 23.0 mph 29.9 mph N/A   Overcast
8:53 PM 34.0 °F 23.0 °F 12.9 °F 42% 29.53 in 10.0 mi SE 18.4 mph 31.1 mph N/A   Overcast
9:53 PM 41.0 °F 30.9 °F 14.0 °F 33% 29.50 in 8.0 mi SSE 24.2 mph 54.1 mph N/A   Clear
10:53 PM 39.9 °F 28.8 °F 12.9 °F 33% 29.51 in 10.0 mi SE 27.6 mph 38.0 mph N/A   Clear
11:53 PM 43.0 °F 32.2 °F 12.9 °F 30% 29.51 in 10.0 mi SSE 32.2 mph 43.7 mph N/A   Clear